User: anonymous   Login
Location: Unspecified
(0.0000°N, 0.0000°E)
Time: 03:35:37
(UTC+00:00)
Language:

NOAA 19 - Orbit

View from above orbital plane
View from above orbital plane
View from above satellite
View from above satellite

Ground track
Ground track

The orbit data is extracted from the following two-line orbital elements,

1 33591U 09005A   17177.55044132 +.00000091 +00000-0 +74726-4 0  9992
2 33591 099.0930 144.5088 0012950 244.4464 115.5368 14.12189972431717
Epoch (UTC): 26 June 2017 13:12:38
Eccentricity: 0.0012950
inclination: 99.0930°
perigee height: 842 km
apogee height: 861 km
right ascension of ascending node: 144.5088°
argument of perigee: 244.4464°
revolutions per day: 14.12189972
mean anomaly at epoch: 115.5368°
orbit number at epoch: 43171

The dashed part of the orbit path shows where the satellite is in the earth's shadow,  

DLR